GW2708 Weather Reports


time (UTC)temp
C
wind
direction
speed
KPH
gust
KPH
rain 1hr
cm
rain 24hr
cm
rain mn
cm
humidity
%
barometer
mb
20260504002518 7 0 0.0 0.0 0.00 0.05 0.05 77 1002.2
20260504002018 7 0 0.0 1.6 0.00 0.05 0.05 77 1002.1
20260504001545 7 0 0.0 3.2 0.00 0.05 0.05 77 1002.2
20260504001016 7 212 0.0 3.2 0.00 0.05 0.05 76 1002.2
20260504000518 7 231 1.6 3.2 0.00 0.05 0.05 76 1002.2
20260504000044 7 231 0.0 6.4 0.00 0.05 0.05 76 1002.1
20260503235518 7 224 1.6 6.4 0.00 0.05 0.05 76 1002.1
20260503235020 7 231 1.6 6.4 0.00 0.05 0.05 76 1002.0
20260503234535 7 205 3.2 9.7 0.00 0.05 0.05 75 1002.1
20260503234018 7 214 4.8 9.7 0.00 0.05 0.05 75 1002.2
20260503233518 8 219 4.8 11.3 0.00 0.05 0.05 76 1002.4
20260503233035 8 217 6.4 11.3 0.00 0.05 0.05 74 1002.4
20260503232519 8 203 3.2 9.7 0.00 0.05 0.05 75 1002.4
20260503232018 8 248 4.8 9.7 0.00 0.05 0.05 75 1002.5
20260503231542 8 173 4.8 8.0 0.00 0.05 0.05 75 1002.4
20260503231018 8 216 3.2 11.3 0.00 0.05 0.05 74 1002.2
20260503230519 8 226 4.8 11.3 0.00 0.05 0.05 73 1002.4
20260503230036 8 198 3.2 6.4 0.00 0.05 0.05 73 1002.4
20260503225520 8 195 1.6 8.0 0.00 0.05 0.05 72 1002.2
20260503225018 8 175 3.2 8.0 0.00 0.05 0.05 72 1002.3
20260503224538 8 207 3.2 8.0 0.00 0.05 0.05 72 1002.4
20260503224018 8 210 3.2 9.7 0.00 0.05 0.05 72 1002.3
20260503223519 8 199 3.2 9.7 0.00 0.05 0.05 73 1002.4
20260503223031 8 219 3.2 9.7 0.00 0.05 0.05 72 1002.5
20260503222517 8 216 4.8 9.7 0.00 0.05 0.05 71 1002.6
20260503222017 8 202 4.8 8.0 0.00 0.05 0.05 71 1002.6
20260503221547 8 174 3.2 9.7 0.00 0.05 0.05 70 1002.7
20260503221019 8 210 3.2 9.7 0.00 0.05 0.05 70 1002.9
20260503220516 8 216 6.4 9.7 0.00 0.05 0.05 69 1002.9
20260503220035 8 235 4.8 9.7 0.00 0.05 0.05 68 1002.9
20260503215519 8 236 3.2 9.7 0.00 0.05 0.05 69 1002.9
20260503215018 8 264 4.8 9.7 0.00 0.05 0.05 68 1002.9
20260503214535 8 256 4.8 9.7 0.00 0.05 0.05 68 1003.0
20260503214018 9 166 3.2 9.7 0.00 0.05 0.05 69 1003.1
20260503213518 9 235 4.8 11.3 0.00 0.05 0.05 67 1003.1
20260503213035 9 231 4.8 12.9 0.00 0.05 0.05 67 1003.0
20260503212521 9 212 8.0 12.9 0.00 0.05 0.05 66 1003.2
20260503212018 9 217 9.7 12.9 0.00 0.05 0.05 67 1003.2
20260503211535 9 243 3.2 12.9 0.00 0.05 0.05 70 1003.2
20260503211017 8 197 4.8 12.9 0.00 0.05 0.05 68 1003.3
20260503210518 8 162 4.8 12.9 0.00 0.05 0.05 70 1003.3
20260503210048 8 141 4.8 12.9 0.00 0.05 0.05 68 1003.3
20260503205519 8 208 4.8 11.3 0.00 0.05 0.05 70 1003.4
20260503205018 8 203 4.8 14.5 0.00 0.05 0.05 71 1003.4
20260503204542 8 205 6.4 14.5 0.00 0.05 0.05 71 1003.5
20260503204018 8 180 3.2 9.7 0.00 0.05 0.05 70 1003.4
20260503203522 8 219 4.8 9.7 0.00 0.05 0.05 73 1003.4
20260503203037 8 139 4.8 12.9 0.00 0.05 0.05 73 1003.5
20260503202519 7 144 6.4 12.9 0.00 0.05 0.05 76 1003.6
20260503202017 7 164 3.2 9.7 0.00 0.05 0.05 78 1003.8
20260503201536 6 162 4.8 9.7 0.00 0.05 0.05 78 1003.8
20260503201020 6 229 4.8 9.7 0.00 0.05 0.05 79 1004.0
20260503200519 6 222 4.8 9.7 0.00 0.05 0.05 78 1004.2
20260503200044 6 198 4.8 9.7 0.00 0.05 0.05 82 1004.2
20260503195517 5 224 3.2 11.3 0.00 0.05 0.05 85 1004.4
20260503195018 5 223 4.8 11.3 0.00 0.05 0.05 86 1004.5
20260503194536 5 188 6.4 11.3 0.00 0.05 0.05 85 1004.6
20260503194016 4 205 4.8 16.1 0.00 0.05 0.05 86 1004.6
20260503193516 4 164 4.8 16.1 0.00 0.05 0.05 87 1004.7
20260503193035 3 249 9.7 16.1 0.00 0.05 0.05 86 1004.8
20260503192519 3 134 8.0 14.5 0.00 0.05 0.05 86 1004.9
20260503192020 3 226 4.8 9.7 0.00 0.05 0.05 88 1005.1
20260503191535 3 214 3.2 9.7 0.00 0.05 0.05 88 1005.1
20260503191022 3 228 4.8 11.3 0.00 0.05 0.05 87 1005.2
20260503190519 3 183 4.8 20.9 0.00 0.05 0.05 87 1005.3
20260503190043 3 244 4.8 20.9 0.00 0.05 0.05 86 1005.3
20260503185518 3 239 8.0 20.9 0.00 0.05 0.05 86 1005.4
20260503185021 4 198 8.0 16.1 0.00 0.05 0.05 85 1005.4
20260503184537 4 199 8.0 14.5 0.00 0.05 0.05 84 1005.4
20260503184019 4 222 8.0 14.5 0.00 0.05 0.05 83 1005.4
20260503183516 5 207 3.2 9.7 0.03 0.05 0.05 84 1005.3
20260503183037 5 193 1.6 9.7 0.03 0.05 0.05 83 1005.3
20260503182517 5 229 3.2 8.0 0.03 0.05 0.05 83 1005.4
20260503182018 5 144 3.2 8.0 0.05 0.05 0.05 82 1005.4
20260503181536 5 132 1.6 6.4 0.05 0.05 0.05 82 1005.4
20260503181018 5 170 1.6 8.0 0.05 0.05 0.05 82 1005.4
20260503180520 5 204 3.2 8.0 0.03 0.03 0.03 82 1005.4
20260503180035 5 191 1.6 6.4 0.03 0.03 0.03 83 1005.4
20260503175517 5 184 1.6 9.7 0.03 0.03 0.03 81 1005.4
20260503175018 5 155 1.6 9.7 0.03 0.03 0.03 82 1005.5
20260503174534 5 195 6.4 16.1 0.03 0.03 0.03 80 1005.6
20260503174022 5 133 4.8 16.1 0.03 0.03 0.03 79 1005.7
20260503173519 5 226 6.4 16.1 0.00 0.00 0.00 78 1005.8
20260503173049 5 229 6.4 14.5 0.00 0.00 0.00 77 1005.8
20260503172515 5 153 6.4 17.7 0.00 0.00 0.00 76 1005.8
20260503172017 5 184 8.0 17.7 0.00 0.00 0.00 75 1005.8
20260503171538 6 231 4.8 12.9 0.00 0.00 0.00 76 1005.9
20260503171018 6 248 4.8 12.9 0.00 0.00 0.00 74 1005.9
20260503170518 6 257 1.6 9.7 0.00 0.00 0.00 73 1005.9
20260503150516 8 223 8.0 20.9 0.00 0.00 0.00 41 1007.1
20260503131018 5 117 1.6 3.2 0.00 0.00 0.00 72 1008.1
20260503130519 5 158 0.0 3.2 0.00 0.00 0.00 73 1008.2
20260503110521 0 310 0.0 1.6 0.00 0.00 0.00 80 1008.5
20260503081549 0 307 0.0 1.6 0.00 0.00 0.00 74 1009.6
20260503081021 0 307 1.6 3.2 0.00 0.00 0.00 73 1009.7
20260503080521 0 317 0.0 3.2 0.00 0.00 0.00 73 1009.6
20260503072519 0 326 1.6 3.2 0.00 0.00 0.00 70 1009.9
20260503072017 1 275 1.6 3.2 0.00 0.00 0.00 70 1009.9
20260503071541 1 316 1.6 4.8 0.00 0.00 0.00 69 1009.9
20260503071019 1 301 1.6 4.8 0.00 0.00 0.00 69 1010.0
20260503070517 1 338 1.6 6.4 0.00 0.00 0.00 68 1009.9
20260503055023 2 300 4.8 9.7 0.00 0.00 0.00 64 1010.4
20260503054539 2 294 4.8 12.9 0.00 0.00 0.00 63 1010.3
20260503054020 2 188 3.2 12.9 0.00 0.00 0.00 62 1010.4
20260503053518 2 304 3.2 11.3 0.00 0.00 0.00 60 1010.4
20260503053036 2 307 3.2 12.9 0.00 0.00 0.00 59 1010.5
20260503052524 2 326 4.8 12.9 0.00 0.00 0.00 58 1010.4
20260503052017 2 266 3.2 11.3 0.00 0.00 0.00 58 1010.4
20260503051536 2 284 4.8 11.3 0.00 0.00 0.00 56 1010.5
20260503051017 2 289 4.8 14.5 0.00 0.00 0.00 56 1010.5
20260503050518 2 271 6.4 14.5 0.00 0.00 0.00 56 1010.4
20260503050035 2 288 4.8 11.3 0.00 0.00 0.00 57 1010.6
20260503045518 2 266 6.4 11.3 0.00 0.00 0.00 57 1010.5
20260503045020 2 275 4.8 14.5 0.00 0.00 0.00 57 1010.4
20260503044541 2 274 4.8 14.5 0.00 0.00 0.00 57 1010.5
20260503044021 2 30 4.8 12.9 0.00 0.00 0.00 57 1010.6
20260503043519 2 326 3.2 12.9 0.00 0.00 0.00 57 1010.6
20260503043035 2 301 4.8 12.9 0.00 0.00 0.00 57 1010.6
20260503042519 2 269 3.2 12.9 0.00 0.00 0.00 57 1010.6
20260503042019 2 288 6.4 11.3 0.00 0.00 0.00 57 1010.6
20260503041539 2 295 3.2 11.3 0.00 0.00 0.00 58 1010.6
20260503041019 2 285 6.4 11.3 0.00 0.00 0.00 57 1010.6
20260503040518 2 302 6.4 11.3 0.00 0.00 0.00 58 1010.5
20260503040037 2 278 4.8 12.9 0.00 0.00 0.00 58 1010.5
20260503035518 2 307 4.8 12.9 0.00 0.00 0.00 58 1010.4
20260503035023 2 275 6.4 16.1 0.00 0.00 0.00 58 1010.6
20260503034535 2 225 6.4 16.1 0.00 0.00 0.00 59 1010.6
20260503034018 2 276 4.8 12.9 0.00 0.00 0.00 59 1010.6
20260503033521 2 231 4.8 11.3 0.00 0.00 0.00 59 1010.6
20260503033031 2 321 4.8 9.7 0.00 0.00 0.00 59 1010.7
20260503032519 2 288 3.2 8.0 0.00 0.00 0.00 59 1010.6
20260503032017 2 261 3.2 8.0 0.00 0.00 0.00 59 1010.7
20260503031547 2 278 3.2 8.0 0.00 0.00 0.00 60 1010.7
20260503031019 2 275 1.6 4.8 0.00 0.00 0.00 60 1010.7
20260503030526 2 0 1.6 3.2 0.00 0.00 0.00 59 1010.7
20260503030035 2 300 0.0 1.6 0.00 0.00 0.00 61 1010.8
20260503025520 2 354 0.0 3.2 0.00 0.00 0.00 60 1010.8
20260503025019 2 274 0.0 3.2 0.00 0.00 0.00 60 1010.9
20260503024536 2 220 0.0 3.2 0.00 0.00 0.00 60 1010.9
20260503024019 2 304 0.0 3.2 0.00 0.00 0.00 60 1010.8
20260503023520 3 220 0.0 19.3 0.00 0.00 0.00 59 1011.1
20260503023040 3 304 1.6 19.3 0.00 0.00 0.00 59 1011.2
20260503022519 3 205 8.0 19.3 0.00 0.00 0.00 60 1011.2
20260503022020 3 262 6.4 14.5 0.00 0.00 0.00 61 1011.0
20260503021540 3 240 6.4 14.5 0.00 0.00 0.00 62 1011.1
20260503021021 3 258 8.0 14.5 0.00 0.00 0.00 60 1011.1
20260503020520 3 220 4.8 9.7 0.00 0.00 0.00 55 1011.0
20260503020041 3 243 3.2 9.7 0.00 0.00 0.00 49 1011.0
20260503015521 4 243 3.2 6.4 0.00 0.00 0.00 48 1011.0
20260503015018 4 220 3.2 9.7 0.00 0.00 0.00 48 1010.9
20260503014536 4 278 3.2 9.7 0.00 0.00 0.00 49 1010.9
20260503014018 4 255 3.2 9.7 0.00 0.00 0.00 50 1010.9
20260503013523 4 271 3.2 8.0 0.00 0.00 0.00 49 1010.9
20260503013039 4 272 3.2 6.4 0.00 0.00 0.00 50 1010.8
20260503012517 4 312 1.6 6.4 0.00 0.00 0.00 49 1010.9
20260503012022 5 281 1.6 4.8 0.00 0.00 0.00 48 1010.8
20260503011534 5 314 1.6 8.0 0.00 0.00 0.00 47 1010.9
20260503011021 5 230 3.2 8.0 0.00 0.00 0.00 46 1010.8
20260503010519 5 287 3.2 9.7 0.00 0.00 0.00 45 1010.8
20260503010039 5 288 3.2 14.5 0.00 0.00 0.00 44 1010.8
20260503005519 5 311 3.2 14.5 0.00 0.00 0.00 44 1010.9
20260503005022 5 240 3.2 9.7 0.00 0.00 0.00 43 1010.8
20260503004536 5 276 3.2 11.3 0.00 0.00 0.00 42 1010.8
20260503004018 6 236 3.2 14.5 0.00 0.00 0.00 41 1010.8
20260503003518 6 288 4.8 17.7 0.00 0.00 0.00 40 1010.8
20260503003036 6 300 4.8 17.7 0.00 0.00 0.00 38 1010.8